Location: Observatory
(52.1446°N, 0.4624°W)
Time: 18:13:03
(UTC+00:00)

ISS - Pass Details

Date: 02 December 2021
Orbit: 417 x 422 km, 51.6° (Epoch: 06 December)

Event Time Altitude Azimuth Distance (km) Brightness Sun altitude
Rises 18:30:25 0° 282° (WNW) 2,380 1.3 -23.1°
Reaches altitude 10° 18:32:36 10° 275° (W) 1,513 0.1 -23.5°
Enters shadow 18:35:20 36° 226° (SW) 685 -2.3 -23.9°
